Погода в Залегощи

Россия / Орловская область     52°54′06″N   36°53′30″E
темп.,
°C
ветер,
м/с
пор.,
м/с
влажн.,
%
обл.,
%
осадки,
мм/ч
давл.,
гПа
погр.,
м
26 сентября, вс
вс2600:00+9юз61295100 1.8 1006663
03:00+10з61197100 4.1 1005720
06:00+10сз61290100 2.2 1006708
09:00+9сз81286100 2.3 1007793
12:00+11сз91373100 0.1 10091222
15:00+9сз7128371 0.8 1010925
18:00+9сз8148247 0.3 1011909
21:00+8сз8148893 0.3 1013759
27 сентября, пн
пн2700:00+8ссз71490100 0.0 1014625
03:00+8ссз71290100 0.1 1015707
06:00+8с6108999 0.1 1017651
09:00+9с599096 0.2 1019646
12:00+12с686970 0.4 10201210
15:00+10с5871100 0.7 1021750
18:00+9с5981100 0.2 1021634
21:00+9с51087100 0.2 1022562
28 сентября, вт
вт2800:00+8с5991100 0.7 1022575
03:00+8ссв5892100 1.1 1023450
06:00+7св5989100 0.3 1023734
09:00+6всв5888100 0.4 1025935
12:00+6св5786100 0.1 1027899
15:00+7св5781100 0.1 1028741
18:00+6св5881100 0.0 1030645
21:00+6всв4876100 0.0 1031532
29 сентября, ср
ср2900:00+5св367373 0.0 1032147
03:00+3ссв35825 0.0 103384
06:00+2ссв35905 0.0 103497
09:00+5св46700 0.0 1035359
12:00+9св45515 0.0 10341039
15:00+10св44465 0.0 10331202
18:00+7ссв33625 0.0 103444
21:00+5всв22695 0.0 103526
30 сентября, чт
чт3000:00+4св2272100 0.0 103512
03:00+4св117399 0.0 103511
06:00+3ссв22785 0.0 103611
09:00+6св236442 0.0 1037229
12:00+10всв22525 0.0 1036887
15:00+12всв11495 0.0 10361093
18:00+9св11620 0.0 103510
21:00+7ссв11700 0.0 103610